Location: *
(50.9167°S, 179.4000°W)
Time: 21:23:19
(UTC+00:00)

DNEPR-1 R/B - Pass Details

Date: 03 March 2024
Orbit: 559 x 1358 km, 64.6° (Epoch: 16 April)

Event Time Altitude Azimuth Distance (km) Brightness Sun altitude
Exits shadow 16:25:01 15° 286° (WNW) 1,560 5.0 -10.9°
Maximum altitude 16:28:05 42° 219° (SW) 836 4.1 -10.4°
Drops below altitude 10° 16:32:12 10° 146° (SSE) 1,968 7.1 -9.8°
Sets 16:34:41 0° 139° (SE) 2,947 8.3 -9.5°
